Content
SEND FEEDBACK

Daily
Averages
Monthly
Summary
United States of America

RAPID CITY, SOUTH DAKOTA


Home > North America > United States > South Dakota
Elevation: 3162 feet     Latitude: 44 03N     Longitude: 103 04W

WEATHER
 
SELECT A DAY
Number of Records: 203,364;   Date Range: 1/1/95 - 10/24/14
 
SHARE

PRINT THIS DATA

[ ← Previous Day ]
WEATHER ALMANAC - MARCH 23, 2013
[ Next Day → ]
[ °C ]   °F
Weather ElementAverageHighLow
Temperature18.3 °F25 °F (1:52 pm)9 °F (6:52 am)
Dewpoint11.1 °F16 °F (10:52 am)3.9 °F (6:52 am)
Humidity73.9 %84 % (10:52 pm)65 % (4:52 pm)
Barometer30.26 in30.37 in (9:52 pm)30.06 in (1:07 am)
Wind Speed17.4 mph27.6 mph (2:52 pm)
Wind Gust33.4 mph (4:52 pm)
Weather ElementAverage
Visibility9.6 mi
Wind DirectionNNW (323.5 °)

Weather ElementTotal
Precipitation---
Heating Degree Days48 (Base 65)
Averaged from 26 records on March 23, 2013
WEATHER CONDITIONS BREAKOUT
WIND DIRECTION BREAKOUT
WEATHER BY HOUR - MARCH 23, 2013
[ °C ]   °F
Local TimeTemperatureDewpointHumidityBarometerVisibilityWind DirectionWind SpeedGust SpeedPrecipitationEventsConditions
1:07 AM19.4 °F12.2 °F74 %30.06 in8.0 miNNW (340°)25.3 mph31.1 mph0.00 inSnowLight Snow
1:52 AM17.1 °F10.0 °F74 %30.17 in9.0 miNNW (330°)21.9 mph0.00 inSnowLight Snow
2:52 AM16.0 °F9.0 °F74 %30.19 in9.0 miNNW (340°)20.7 mph0.00 inSnowLight Snow
3:52 AM15.1 °F8.1 °F74 %30.19 in9.0 miNNW (340°)20.7 mph0.00 inSnowLight Snow
4:52 AM15.1 °F9.0 °F77 %30.21 in9.0 miNNW (340°)18.4 mph0.00 inSnowLight Snow
5:52 AM12.0 °F7.0 °F80 %30.25 in9.0 miNorth (360°)6.9 mph0.00 inSnowLight Snow
6:52 AM9.0 °F3.9 °F80 %30.25 in9.0 miNNW (340°)10.4 mph0.00 inSnowLight Snow
7:52 AM10.9 °F5.0 °F77 %30.28 in9.0 miNorth (350°)6.9 mph0.00 inClear
8:52 AM19.0 °F10.0 °F68 %30.28 in9.0 miNorth (350°)6.9 mphClear
9:52 AM19.9 °F12.0 °F71 %30.29 in10.0 miNorth (350°)11.5 mphPartly Cloudy
10:14 AM21.2 °F14.0 °F74 %30.15 in10.0 miNNW (340°)19.6 mphMostly Cloudy
10:27 AM21.2 °F15.8 °F80 %30.15 in10.0 miNorth (350°)21.9 mphScattered Clouds
10:52 AM21.9 °F16.0 °F78 %30.29 in10.0 miNNW (340°)20.7 mphClear
11:52 AM23.0 °F15.1 °F72 %30.28 in10.0 miNorth (350°)23.0 mphClear
12:52 PM23.0 °F15.1 °F72 %30.27 in10.0 miNorth (360°)23.0 mph28.8 mphClear
1:52 PM25.0 °F16.0 °F69 %30.26 in10.0 miNorth (360°)18.4 mphClear
2:52 PM25.0 °F15.1 °F66 %30.26 in10.0 miNorth (360°)27.6 mph32.2 mphClear
3:52 PM24.1 °F15.1 °F69 %30.27 in10.0 miNorth (360°)24.2 mphClear
4:52 PM24.1 °F14.0 °F65 %30.27 in10.0 miNorth (360°)24.2 mph33.4 mphClear
5:52 PM23.0 °F12.9 °F65 %30.29 in10.0 miNorth (360°)27.6 mph33.4 mphClear
6:52 PM21.0 °F12.0 °F68 %30.31 in10.0 miNorth (360°)20.7 mphClear
7:52 PM19.0 °F10.9 °F71 %30.32 in10.0 miNorth (10°)18.4 mphClear
8:52 PM14.0 °F8.1 °F77 %30.35 in10.0 miCalmClear
9:52 PM12.9 °F8.1 °F81 %30.37 in10.0 miNorth (350°)10.4 mphClear
10:52 PM10.9 °F7.0 °F84 %30.36 in10.0 miNorth (360°)11.5 mphClear
11:52 PM12.9 °F8.1 °F81 %30.35 in10.0 miNorth (350°)11.5 mphClear
Hourly data recorded from KRAP, located miles away from Rapid City, South Dakota







STORIES FROM OUR PARTNERS